When you browse on this site, cookies collect data to enhance your experience and personalize the content and advertising you see.
Visit our Privacy Policy to learn more. By continuing to use the site, you agree to this use of cookies and data.
  • Em Portugal
  • Lista de países
  • Para 7 dias
  • Temperatura da água
  • Mapas de satélite
  • Mapa do tempo
  • Widgets de tempo
  • user-avatar
    Iniciar Sessão

    Previsão horária em Faro

    Hoje, 17 Janeiro, Quinta-feira

    Tempo Temperatura Precipitação Vento Pressão Humidade
    00:00 +12°C° 0 mm 2 m/s 762 mmHg 90%
    01:00 +12°C° 0 mm 2 m/s 762 mmHg 90%
    02:00 +10°C° 0 mm 3 m/s 762 mmHg 90%
    03:00 +10°C° 0 mm 3 m/s 762 mmHg 91%
    04:00 +10°C° 0 mm 3 m/s 762 mmHg 91%
    05:00 +9°C° 0 mm 3 m/s 762 mmHg 91%
    06:00 +9°C° 0 mm 3 m/s 762 mmHg 92%
    07:00 +9°C° 0 mm 3 m/s 762 mmHg 92%
    08:00 +8°C° 0 mm 4 m/s 763 mmHg 92%
    09:00 +10°C° 0 mm 4 m/s 763 mmHg 89%
    10:00 +11°C° 0 mm 4 m/s 763 mmHg 85%
    11:00 +12°C° 0 mm 4 m/s 763 mmHg 82%
    12:00 +13°C° 0 mm 4 m/s 763 mmHg 77%
    13:00 +14°C° 0 mm 3 m/s 763 mmHg 71%
    14:00 +14°C° 0 mm 3 m/s 762 mmHg 66%
    15:00 +13°C° 0 mm 3 m/s 762 mmHg 72%
    16:00 +12°C° 0 mm 4 m/s 763 mmHg 78%
    17:00 +10°C° 0 mm 4 m/s 763 mmHg 84%
    18:00 +10°C° 0 mm 4 m/s 763 mmHg 86%
    19:00 +8°C° 0 mm 4 m/s 763 mmHg 88%
    20:00 +8°C° 0 mm 4 m/s 764 mmHg 90%
    21:00 +7°C° 0 mm 4 m/s 764 mmHg 91%
    22:00 +7°C° 0 mm 4 m/s 764 mmHg 91%
    23:00 +6°C° 0 mm 4 m/s 764 mmHg 92%

    Amanhã, 18 Janeiro, Sexta-feira

    Tempo Temperatura Precipitação Vento Pressão Humidade
    00:00 +6°C° 0 mm 4 m/s 764 mmHg 92%
    01:00 +6°C° 0 mm 4 m/s 764 mmHg 92%
    02:00 +5°C° 0 mm 3 m/s 764 mmHg 92%
    03:00 +5°C° 0 mm 4 m/s 764 mmHg 91%
    04:00 +5°C° 0 mm 4 m/s 764 mmHg 91%
    05:00 +5°C° 0 mm 4 m/s 764 mmHg 91%
    06:00 +5°C° 0 mm 4 m/s 764 mmHg 86%
    07:00 +6°C° 0 mm 4 m/s 765 mmHg 81%
    08:00 +6°C° 0 mm 4 m/s 765 mmHg 76%
    09:00 +10°C° 0 mm 3 m/s 765 mmHg 67%
    10:00 +12°C° 0 mm 3 m/s 765 mmHg 58%
    11:00 +14°C° 0 mm 3 m/s 765 mmHg 49%
    12:00 +14°C° 0 mm 3 m/s 765 mmHg 48%
    13:00 +14°C° 0 mm 3 m/s 765 mmHg 47%
    14:00 +16°C° 0 mm 3 m/s 764 mmHg 47%
    15:00 +13°C° 0 mm 4 m/s 764 mmHg 55%
    16:00 +11°C° 0 mm 4 m/s 765 mmHg 62%
    17:00 +10°C° 0 mm 4 m/s 765 mmHg 70%
    18:00 +8°C° 0 mm 4 m/s 765 mmHg 77%
    19:00 +8°C° 0 mm 4 m/s 766 mmHg 83%
    20:00 +7°C° 0 mm 4 m/s 766 mmHg 89%
    21:00 +8°C° 0 mm 3 m/s 766 mmHg 91%
    22:00 +8°C° 0 mm 3 m/s 766 mmHg 92%
    23:00 +8°C° 0 mm 2 m/s 766 mmHg 94%

    Depois de amanhã, 19 Janeiro, Sábado

    Tempo Temperatura Precipitação Vento Pressão Humidade
    00:00 +9°C° 0 mm 2 m/s 766 mmHg 93%
    01:00 +10°C° 0 mm 2 m/s 765 mmHg 92%
    02:00 +10°C° 0 mm 2 m/s 765 mmHg 91%
    03:00 +11°C° 0.3 mm 3 m/s 765 mmHg 93%
    04:00 +11°C° 0.3 mm 3 m/s 765 mmHg 95%
    05:00 +12°C° 0.3 mm 4 m/s 764 mmHg 97%
    06:00 +12°C° 0.1 mm 4 m/s 764 mmHg 96%
    07:00 +13°C° 0.1 mm 4 m/s 765 mmHg 96%
    08:00 +13°C° 0.1 mm 4 m/s 765 mmHg 96%
    09:00 +14°C° 0 mm 4 m/s 765 mmHg 91%
    10:00 +15°C° 0 mm 5 m/s 765 mmHg 85%
    11:00 +16°C° 0 mm 5 m/s 764 mmHg 80%
    12:00 +16°C° 0.3 mm 6 m/s 764 mmHg 82%
    13:00 +16°C° 0.3 mm 7 m/s 763 mmHg 84%
    14:00 +15°C° 0.3 mm 8 m/s 762 mmHg 85%
    15:00 +15°C° 0.1 mm 8 m/s 762 mmHg 88%
    16:00 +13°C° 0.1 mm 8 m/s 762 mmHg 90%
    17:00 +13°C° 0.1 mm 9 m/s 762 mmHg 92%
    18:00 +13°C° 0.2 mm 8 m/s 762 mmHg 92%
    19:00 +13°C° 0.2 mm 8 m/s 762 mmHg 92%
    20:00 +13°C° 0.2 mm 8 m/s 762 mmHg 93%
    21:00 +13°C° 0 mm 8 m/s 762 mmHg 92%
    22:00 +12°C° 0 mm 7 m/s 762 mmHg 91%
    23:00 +12°C° 0 mm 7 m/s 762 mmHg 91%

    20 Janeiro, Domingo

    Tempo Temperatura Precipitação Vento Pressão Humidade
    00:00 +11°C° 0 mm 7 m/s 762 mmHg 92%
    01:00 +11°C° 0 mm 7 m/s 762 mmHg 93%
    02:00 +10°C° 0 mm 7 m/s 762 mmHg 93%
    03:00 +10°C° 0 mm 7 m/s 762 mmHg 93%
    04:00 +9°C° 0 mm 8 m/s 762 mmHg 92%
    05:00 +9°C° 0 mm 8 m/s 762 mmHg 92%
    06:00 +9°C° 0 mm 8 m/s 763 mmHg 89%
    07:00 +10°C° 0 mm 9 m/s 763 mmHg 87%
    08:00 +10°C° 0 mm 9 m/s 764 mmHg 85%
    09:00 +11°C° 0 mm 9 m/s 764 mmHg 78%
    10:00 +12°C° 0 mm 9 m/s 764 mmHg 72%
    11:00 +13°C° 0 mm 9 m/s 765 mmHg 65%
    12:00 +15°C° 0 mm 8 m/s 764 mmHg 61%
    13:00 +16°C° 0 mm 7 m/s 764 mmHg 57%
    14:00 +16°C° 0 mm 7 m/s 764 mmHg 53%
    15:00 +15°C° 0 mm 6 m/s 764 mmHg 58%
    16:00 +14°C° 0 mm 6 m/s 764 mmHg 62%
    17:00 +11°C° 0 mm 6 m/s 765 mmHg 66%
    18:00 +11°C° 0 mm 6 m/s 765 mmHg 68%
    19:00 +10°C° 0 mm 7 m/s 766 mmHg 69%
    20:00 +9°C° 0 mm 7 m/s 767 mmHg 71%
    21:00 +9°C° 0 mm 7 m/s 767 mmHg 73%
    22:00 +8°C° 0 mm 7 m/s 767 mmHg 76%
    23:00 +7°C° 0 mm 8 m/s 768 mmHg 78%

    21 Janeiro, Segunda-feira

    Tempo Temperatura Precipitação Vento Pressão Humidade
    00:00 +6°C° 0 mm 7 m/s 768 mmHg 80%
    01:00 +6°C° 0 mm 7 m/s 768 mmHg 81%
    02:00 +5°C° 0 mm 6 m/s 768 mmHg 82%
    03:00 +5°C° 0 mm 6 m/s 768 mmHg 83%
    04:00 +6°C° 0 mm 5 m/s 768 mmHg 83%
    05:00 +5°C° 0 mm 5 m/s 768 mmHg 84%
    06:00 +6°C° 0 mm 4 m/s 769 mmHg 80%
    07:00 +6°C° 0 mm 4 m/s 769 mmHg 76%
    08:00 +7°C° 0 mm 4 m/s 769 mmHg 73%
    09:00 +10°C° 0 mm 3 m/s 770 mmHg 64%
    10:00 +14°C° 0 mm 2 m/s 770 mmHg 56%
    11:00 +16°C° 0 mm 2 m/s 770 mmHg 47%
    12:00 +16°C° 0 mm 2 m/s 769 mmHg 46%
    13:00 +17°C° 0 mm 2 m/s 769 mmHg 44%
    14:00 +17°C° 0 mm 2 m/s 768 mmHg 42%
    15:00 +15°C° 0 mm 2 m/s 768 mmHg 50%
    16:00 +14°C° 0 mm 2 m/s 768 mmHg 58%
    17:00 +11°C° 0 mm 3 m/s 768 mmHg 66%
    18:00 +10°C° 0 mm 3 m/s 768 mmHg 72%
    19:00 +8°C° 0 mm 4 m/s 769 mmHg 78%
    20:00 +7°C° 0 mm 4 m/s 769 mmHg 84%
    21:00 +7°C° 0 mm 5 m/s 769 mmHg 84%
    22:00 +6°C° 0 mm 5 m/s 769 mmHg 84%
    23:00 +6°C° 0 mm 5 m/s 768 mmHg 84%

    22 Janeiro, Terça-feira

    Tempo Temperatura Precipitação Vento Pressão Humidade
    00:00 +6°C° 0 mm 5 m/s 768 mmHg 87%
    01:00 +6°C° 0 mm 5 m/s 768 mmHg 90%
    02:00 +6°C° 0 mm 5 m/s 767 mmHg 93%
    03:00 +6°C° 0 mm 5 m/s 767 mmHg 94%
    04:00 +6°C° 0 mm 5 m/s 766 mmHg 94%
    05:00 +7°C° 0 mm 5 m/s 766 mmHg 95%
    06:00 +8°C° 0 mm 5 m/s 766 mmHg 93%
    07:00 +9°C° 0 mm 6 m/s 765 mmHg 92%
    08:00 +11°C° 0 mm 7 m/s 765 mmHg 91%
    09:00 +11°C° 0.1 mm 8 m/s 765 mmHg 83%
    10:00 +11°C° 0.1 mm 9 m/s 765 mmHg 76%
    11:00 +12°C° 0.1 mm 9 m/s 764 mmHg 68%
    12:00 +12°C° 0 mm 10 m/s 764 mmHg 64%
    13:00 +12°C° 0 mm 10 m/s 763 mmHg 60%
    14:00 +12°C° 0 mm 10 m/s 763 mmHg 56%
    15:00 +10°C° 0 mm 9 m/s 763 mmHg 60%
    16:00 +9°C° 0 mm 8 m/s 763 mmHg 65%
    17:00 +8°C° 0 mm 7 m/s 763 mmHg 69%
    18:00 +8°C° 0 mm 7 m/s 764 mmHg 72%
    19:00 +7°C° 0 mm 6 m/s 764 mmHg 76%
    20:00 +7°C° 0 mm 6 m/s 764 mmHg 80%
    21:00 +7°C° 0 mm 6 m/s 764 mmHg 84%
    22:00 +5°C° 0 mm 6 m/s 763 mmHg 87%
    23:00 +5°C° 0 mm 6 m/s 763 mmHg 90%
    Mostrar mais